This is the latest recevied weather packets stored in our database for station/object MB7UKY-10. If no packets are shown the sender has not sent any weather packets the latest 10 day(s).
| Time | Temp. | Humidity | Pressure | Rain* | Wind** | Luminosity | Snow |
|---|---|---|---|---|---|---|---|
| 1777722788 | 24.44° C | 45% | 1011.3 hPa | - | - | - | - |
| 1777721888 | 23.89° C | 45% | 1011.5 hPa | - | - | - | - |
| 1777720987 | 23.89° C | 46% | 1011.5 hPa | - | - | - | - |
| 1777720086 | 23.33° C | 46% | 1011.5 hPa | - | - | - | - |
| 1777719185 | 23.89° C | 45% | 1011.6 hPa | - | - | - | - |
| 1777718285 | 23.89° C | 45% | 1011.6 hPa | - | - | - | - |
| 1777717384 | 23.89° C | 45% | 1011.8 hPa | - | - | - | - |
| 1777716483 | 23.89° C | 45% | 1011.9 hPa | - | - | - | - |
| 1777715582 | 23.89° C | 45% | 1012.1 hPa | - | - | - | - |
| 1777714682 | 23.89° C | 46% | 1012.1 hPa | - | - | - | - |
| 1777713781 | 23.89° C | 47% | 1012.2 hPa | - | - | - | - |
| 1777712880 | 23.33° C | 47% | 1012.3 hPa | - | - | - | - |
| 1777711979 | 23.33° C | 47% | 1012.4 hPa | - | - | - | - |
| 1777711079 | 23.33° C | 47% | 1012.3 hPa | - | - | - | - |
| 1777710177 | 23.33° C | 48% | 1012.4 hPa | - | - | - | - |
| 1777709277 | 23.33° C | 48% | 1012.5 hPa | - | - | - | - |
| 1777708376 | 23.33° C | 48% | 1012.5 hPa | - | - | - | - |
| 1777707475 | 22.78° C | 48% | 1012.4 hPa | - | - | - | - |
| 1777706574 | 22.78° C | 49% | 1012.3 hPa | - | - | - | - |
| 1777705674 | 22.22° C | 50% | 1012.3 hPa | - | - | - | - |
| 1777704773 | 21.67° C | 50% | 1012.3 hPa | - | - | - | - |
| 1777703872 | 21.11° C | 50% | 1012.2 hPa | - | - | - | - |
| 1777702971 | 20.56° C | 50% | 1012.2 hPa | - | - | - | - |
| 1777702071 | 20° C | 50% | 1012 hPa | - | - | - | - |
| 1777701170 | 20° C | 49% | 1012.1 hPa | - | - | - | - |
* Rain since midnight (hover to see other rain measurements)
** Current wind speed in m/s (hover to see current wind gust speed)